sat.trackr.live / text

‹ back to catalog

STARLINK-37404

NORAD 68786 · 2026-086W

PAYLOAD ACTIVE UNKNOWN

§ Identity

Operator
Country
US
Launch date
2026-04-19
Launch site
AFWTR
Launch vehicle
Mass (kg)
RCS (m²)

Purposes: comms

External: N2YO · Heavens-Above · Gunter

§ Orbital elements

Epoch: 2026-05-25T00:37:15.485088Z

Period
91.44 min
Inclination
97.2861°
Eccentricity
0.0003613
Mean motion
15.74828639 rev/d
Perigee alt
342.7 km
Apogee alt
347.5 km
Semi-major
6,723.3 km
B*
9.2111e-4
RAAN
181.9124°
Arg perigee
174.2014°
Mean anomaly
185.9293°
Rev number
551

§ Raw data

STARLINK-374041 68786U 26086W   26145.02587367  .00137365  00000+0  92111-3 0  99942 68786  97.2861 181.9124 0003613 174.2014 185.9293 15.74828639  5519

JSON: /api/v1/satellites/68786 · /tle

For live sub-satellite position, see the globe view (requires WebGL).

§ Visibility from observer

Set your observer location to see the next 7 days of passes ≥ 10°. The values pass through the URL so the page stays shareable.

No JS? Fill the form by hand. The geolocation button needs JavaScript.